Home   Weather   Los Angeles   Past weeks

Flag for USA Past Weather in Los Angeles, California, USA — Yesterday and Last 2 Weeks

61 °F


Feels Like: 61 °F
Forecast: 59 / 76 °F
Wind: No wind

Location: Los Angeles / USC Campus Downtown

Current Time: Oct 23, 2016 at 7:18:43 AM

Latest Report: Oct 23, 2016 at 6:47 AM

Visibility: 1 mi

Pressure: 29.96 "Hg

Humidity: 100%

Dew Point: 61 °F

Location of Los AngelesLocation

Past Weather in Los Angeles — Graph


Los Angeles Temperature Yesterday

Maximum temperature yesterday: 85 °F (at 2:47 PM)
Minimum temperature yesterday: 61 °F (at 4:47 AM)
Average temperature yesterday: 70 °F

High & Low Weather Summary for the Past Weeks

High94 °F (Oct 20, 12:47 PM)100% (Oct 17, 4:00 AM)30.08 "Hg (Oct 17, 4:00 AM)
Low58 °F (Oct 13, 3:47 AM)6% (Oct 20, 1:47 PM)29.80 "Hg (Oct 21, 4:47 PM)
Average69 °F64%29.94 "Hg
* Reported Oct 8 5:47 AM — Oct 23 5:58 AM, Los Angeles, Weather by CustomWeather, © 2016

Note: Actual official high and low records may vary slightly from our data, if they occured in-between our weather recording intervals... More about our weather records


Los Angeles Weather History for the Previous 24 Hours

Scroll right to see more
Time TempWeatherWind HumidityBarometerVisibility
5:58 AM
Sun, Oct 23
61 °FFog.No wind100%29.95 "Hg1 mi
5:47 AM61 °FFog.No wind100%29.95 "Hg1 mi
4:54 AM62 °FFog.No wind96%29.94 "Hg2 mi
4:47 AM62 °FFog.No wind96%29.94 "Hg4 mi
3:47 AM63 °FClear.No wind90%29.93 "Hg7 mi
2:47 AM63 °FClear.No wind87%29.93 "Hg8 mi
1:47 AM63 °FClear.No wind90%29.93 "Hg8 mi
12:47 AM63 °FClear.No wind90%29.91 "Hg8 mi
11:47 PM
Sat, Oct 22
64 °FClear.No wind87%29.90 "Hg8 mi
10:47 PM64 °FClear.No wind87%29.90 "Hg9 mi
9:47 PM65 °FClear.No wind85%29.89 "Hg10 mi
8:47 PM66 °FClear.No wind81%29.88 "Hg10 mi
7:47 PM68 °FClear.No wind73%29.86 "Hg10 mi
6:47 PM70 °FClear.No wind66%29.85 "Hg10 mi
5:47 PM74 °FSunny.3 mph50%29.84 "Hg10 mi
4:47 PM79 °FSunny.No wind42%29.83 "Hg10 mi
3:47 PM81 °FSunny.3 mph38%29.83 "Hg10 mi
2:47 PM85 °FSunny.No wind18%29.83 "Hg10 mi
1:47 PM84 °FSunny.No wind19%29.84 "Hg10 mi
12:47 PM84 °FSunny.3 mph21%29.85 "Hg10 mi
11:47 AM82 °FSunny.No wind20%29.87 "Hg10 mi
10:47 AM80 °FSunny.No wind19%29.87 "Hg10 mi
9:47 AM75 °FSunny.No wind21%29.88 "Hg10 mi
8:47 AM67 °FSunny.No wind39%29.88 "Hg10 mi
7:47 AM61 °FSunny.No wind48%29.87 "Hg10 mi
Weather by CustomWeather, © 2016

See weather overviewHow to use our weather pages